KD8CJ Weather Reports


Display with metric or nautical units.
time (UTC)temp
F
wind
direction
speed
MPH
gust
MPH
rain 1hr
in
rain 24hr
in
rain mn
in
humidity
%
barometer
mb
20260831203007 85 254 0.0 0.0 0.00 0.01 0.00 66 1017.6
20260831201517 87 255 0.0 2.0 0.00 0.01 0.00 61 1017.7
20260831200039 88 255 0.0 2.0 0.00 0.01 0.00 60 1017.8
20260831194545 88 250 0.0 3.0 0.00 0.01 0.00 56 1017.9
20260831193009 89 218 1.0 4.0 0.00 0.01 0.00 56 1018.1
20260831191508 89 251 0.0 4.0 0.00 0.01 0.00 57 1018.3
20260831190016 89 243 0.0 5.0 0.00 0.01 0.00 57 1018.5
20260831184524 89 224 0.0 3.0 0.00 0.01 0.00 57 1018.5
20260831183033 89 257 1.0 5.0 0.00 0.01 0.00 56 1018.7
20260831181531 89 247 2.0 7.0 0.00 0.01 0.00 57 1018.8
20260831180010 87 259 1.0 5.0 0.00 0.01 0.00 60 1018.9
20260831174516 87 260 2.0 4.0 0.00 0.01 0.00 61 1019.0
20260831173024 89 203 0.0 3.0 0.00 0.01 0.00 63 1019.1
20260831171525 88 230 1.0 5.0 0.00 0.01 0.00 60 1019.2
20260831170036 87 238 1.0 5.0 0.00 0.01 0.00 63 1019.4
20260831164510 88 250 0.0 3.0 0.00 0.01 0.00 62 1019.4
20260831163019 87 254 0.0 4.0 0.00 0.01 0.00 67 1019.3
20260831161523 86 241 1.0 2.0 0.00 0.01 0.00 65 1019.4
20260831160035 85 254 1.0 3.0 0.00 0.01 0.00 68 1019.4
20260831154556 83 247 1.0 3.0 0.00 0.01 0.00 73 1019.5
20260831153016 82 241 0.0 1.0 0.00 0.01 0.00 75 1019.6
20260831151520 81 238 0.0 3.0 0.00 0.01 0.00 77 1019.7
20260831150027 80 226 0.0 1.0 0.00 0.01 0.00 79 1019.7
20260831144540 78 247 0.0 1.0 0.00 0.01 0.00 82 1019.6
20260831143039 76 226 0.0 2.0 0.00 0.01 0.00 86 1019.5
20260831141515 73 259 0.0 1.0 0.00 0.01 0.00 89 1019.5
20260831140021 72 259 0.0 2.0 0.00 0.01 0.00 91 1019.6
20260831134527 71 266 1.0 2.0 0.00 0.01 0.00 92 1019.5
20260831133033 71 263 0.0 1.0 0.00 0.01 0.00 93 1019.5
20260831131532 71 259 0.0 1.0 0.00 0.01 0.00 93 1019.5
20260831130022 70 260 0.0 0.0 0.00 0.01 0.00 93 1019.5
20260831124524 70 262 0.0 0.0 0.00 0.01 0.00 93 1019.4
20260831123029 70 262 0.0 0.0 0.00 0.01 0.00 93 1019.3
20260831121537 70 262 0.0 0.0 0.00 0.01 0.00 94 1019.3
20260831120022 70 263 0.0 0.0 0.00 0.01 0.00 94 1019.3
20260831114529 69 263 0.0 0.0 0.00 0.01 0.00 93 1019.2
20260831113004 69 263 0.0 0.0 0.00 0.01 0.00 93 1019.0
20260831111507 69 263 0.0 0.0 0.00 0.01 0.00 93 1018.9
20260831110013 69 263 0.0 0.0 0.00 0.01 0.00 93 1018.7
20260831104517 69 270 0.0 0.0 0.00 0.01 0.00 93 1018.6
20260831103026 69 271 0.0 0.0 0.00 0.01 0.00 93 1018.5
20260831101506 69 278 0.0 0.0 0.00 0.01 0.00 93 1018.5
20260831100012 68 278 0.0 0.0 0.00 0.01 0.00 94 1018.5
20260831094520 68 278 0.0 0.0 0.00 0.01 0.00 93 1018.5
20260831093017 68 278 0.0 0.0 0.00 0.01 0.00 93 1018.4
20260831091527 68 278 0.0 0.0 0.00 0.01 0.00 94 1018.4
20260831090009 68 278 0.0 0.0 0.00 0.01 0.00 94 1018.4
20260831084520 68 278 0.0 0.0 0.00 0.01 0.00 94 1018.4
20260831083013 68 278 0.0 0.0 0.00 0.01 0.00 94 1018.6
20260831081528 68 279 0.0 0.0 0.00 0.01 0.00 94 1018.6
20260831080028 68 279 0.0 0.0 0.00 0.01 0.00 94 1018.5
20260831074527 68 279 0.0 0.0 0.00 0.01 0.00 94 1018.4
20260831073029 68 279 0.0 0.0 0.00 0.01 0.00 94 1018.4
20260831071517 68 279 0.0 0.0 0.00 0.01 0.00 95 1018.5
20260831070031 67 279 0.0 0.0 0.00 0.01 0.00 96 1018.6
20260831064537 67 279 0.0 0.0 0.00 0.01 0.00 95 1018.7
20260831063015 68 279 0.0 0.0 0.00 0.01 0.00 96 1018.8
20260831061520 68 279 0.0 0.0 0.00 0.01 0.00 96 1019.0
20260831060021 68 279 0.0 0.0 0.00 0.01 0.00 96 1019.2
20260831054526 67 279 0.0 0.0 0.00 0.01 0.00 96 1019.2
20260831053035 67 279 0.0 0.0 0.00 0.01 0.00 95 1019.2
20260831051514 67 279 0.0 0.0 0.00 0.01 0.00 95 1019.2
20260831050034 67 279 0.0 0.0 0.00 0.01 0.00 95 1019.3
20260831044523 67 279 0.0 0.0 0.00 0.01 0.00 94 1019.3
20260831043028 67 279 0.0 0.0 0.00 0.01 0.00 94 1019.3
20260831041543 68 279 0.0 0.0 0.00 0.01 0.00 94 1019.3
20260831040038 68 279 0.0 0.0 0.00 0.01 0.00 94 1019.4
20260831034527 69 279 0.0 0.0 0.00 0.01 0.01 94 1019.6
20260831033022 69 279 0.0 0.0 0.00 0.01 0.01 94 1019.4
20260831031527 69 279 0.0 0.0 0.00 0.01 0.01 94 1019.6
20260831030043 69 279 0.0 0.0 0.00 0.01 0.01 94 1019.6
20260831024511 69 279 0.0 0.0 0.00 0.01 0.01 94 1019.9
20260831023019 69 279 0.0 0.0 0.00 0.01 0.01 94 1019.9
20260831021525 69 279 0.0 0.0 0.00 0.01 0.01 94 1019.9
20260831020031 70 279 0.0 0.0 0.00 0.01 0.01 93 1020.0
20260831014535 70 279 0.0 0.0 0.00 0.01 0.01 93 1019.8
20260831013016 70 279 0.0 0.0 0.01 0.01 0.01 93 1019.9
20260831011532 70 279 0.0 0.0 0.01 0.01 0.01 93 1019.9
20260831010028 70 279 0.0 0.0 0.01 0.01 0.01 92 1019.8
20260831004530 70 279 0.0 0.0 0.01 0.01 0.01 91 1019.6
20260831003035 71 279 0.0 1.0 0.00 0.00 0.00 90 1019.6
20260831001516 71 279 0.0 0.0 0.00 0.00 0.00 87 1019.7
20260831000022 72 279 0.0 0.0 0.00 0.00 0.00 86 1019.1
20260830234528 72 279 0.0 0.0 0.00 0.00 0.00 84 1018.9
20260830233051 72 279 0.0 0.0 0.00 0.00 0.00 84 1018.8
20260830231532 73 279 0.0 0.0 0.00 0.00 0.00 84 1018.5
20260830230023 73 279 0.0 0.0 0.00 0.00 0.00 82 1018.5
20260830224525 73 279 0.0 0.0 0.00 0.00 0.00 83 1018.5
20260830223031 74 279 0.0 0.0 0.00 0.00 0.00 80 1018.4
20260830221533 74 279 0.0 0.0 0.00 0.00 0.00 81 1018.3
20260830220028 75 279 0.0 0.0 0.00 0.00 0.00 83 1018.1
20260830214519 75 279 0.0 1.0 0.00 0.00 0.00 80 1018.1
20260830213003 75 264 0.0 0.0 0.00 0.00 0.00 84 1018.1
20260830211507 76 264 0.0 1.0 0.00 0.00 0.00 80 1018.7
20260830210019 77 264 0.0 0.0 0.00 0.00 0.00 79 1018.4
20260830204516 77 264 0.0 0.0 0.00 0.00 0.00 78 1018.4